Hulianwang W. Digui 03-06

operational
NORAD ID: 63692 Int'l Des: 2025-086 Owner: ZXW Country: CN Constellation: xingwang
LEOCIRCULARPOLARONEWEB_TYPE

About Hulianwang W. Digui 03-06

Description loading...

Live Position

Loading 3D Globe...

Upcoming Passes

Altitude History

Altitude vs Time

uPlot chart will show altitude changes over time

Two-Line Element Set

1 63692U 25086F 25315.26509918 .00000054 00000-0 91797-4 0 9999
2 63692 86.5076 26.4409 0002096 106.8130 253.3234 13.24419180 26015
Epoch: Nov 11, 2025 • Age: 26 hours

Current Status

Altitude 1173.0 km
Velocity 7.27 km/s
Sub-Earth Point -11.92°S, 24.4°E
Launch Date Apr 28, 2025
Age 0.5 years
Type other

Technical Details

Classification Payload
Mass 800.00 kg
Dry Mass 800.00 kg
Total Mass 800.00 kg
Length 3.00 m
Diameter 1.00 m
Span 10.00 m
Shape Box + 2 Pan
Manufacturer CAST
Bus Type Guowang C
Phase Status In Orbit
Owner/State ZXW/CN

Large Constellations

Loading constellations...